When you browse on this site, cookies collect data to enhance your experience and personalize the content and advertising you see.
Visit our Privacy Policy to learn more. By continuing to use the site, you agree to this use of cookies and data.
  • în România
  • Lista ţărilor
  • Pe 7 zile
  • Temperatura apei
  • Hartă satelitară
  • Meteo pe hartă
  • Widget-uri
  • user-avatar
    Intrare

    Meteo pe oră la Zahozhe

    Astăzi, 26 Aprilie, Vineri

    Timp Temperatura Precipitaţii Vânt Presiune Umiditate
    00:00 +14°C° 0 mm 1 m/s 751 mmHg 61%
    01:00 +14°C° 0 mm 1 m/s 751 mmHg 63%
    02:00 +14°C° 0 mm 1 m/s 751 mmHg 65%
    03:00 +14°C° 0 mm 1 m/s 751 mmHg 66%
    04:00 +13°C° 0 mm 1 m/s 751 mmHg 68%
    05:00 +13°C° 0 mm 1 m/s 751 mmHg 70%
    06:00 +15°C° 0 mm 1 m/s 751 mmHg 66%
    07:00 +16°C° 0 mm 1 m/s 751 mmHg 63%
    08:00 +18°C° 0 mm 1 m/s 751 mmHg 59%
    09:00 +19°C° 0 mm 2 m/s 751 mmHg 52%
    10:00 +20°C° 0 mm 2 m/s 751 mmHg 45%
    11:00 +23°C° 0 mm 2 m/s 751 mmHg 38%
    12:00 +23°C° 0 mm 2 m/s 750 mmHg 37%
    13:00 +23°C° 0 mm 2 m/s 750 mmHg 37%
    14:00 +23°C° 0 mm 1 m/s 750 mmHg 37%
    15:00 +23°C° 0 mm 1 m/s 749 mmHg 39%
    16:00 +22°C° 0 mm 1 m/s 749 mmHg 40%
    17:00 +22°C° 0 mm 1 m/s 749 mmHg 42%
    18:00 +20°C° 0 mm 1 m/s 749 mmHg 47%
    19:00 +18°C° 0 mm 2 m/s 748 mmHg 52%
    20:00 +16°C° 0 mm 2 m/s 748 mmHg 57%
    21:00 +15°C° 0 mm 2 m/s 748 mmHg 60%
    22:00 +14°C° 0 mm 2 m/s 748 mmHg 62%
    23:00 +13°C° 0 mm 2 m/s 748 mmHg 65%

    Mâine, 27 Aprilie, Sâmbătă

    Timp Temperatura Precipitaţii Vânt Presiune Umiditate
    00:00 +14°C° 0 mm 2 m/s 747 mmHg 63%
    01:00 +14°C° 0 mm 1 m/s 747 mmHg 62%
    02:00 +14°C° 0 mm 1 m/s 747 mmHg 61%
    03:00 +13°C° 0 mm 1 m/s 747 mmHg 63%
    04:00 +13°C° 0 mm 1 m/s 746 mmHg 65%
    05:00 +12°C° 0 mm 2 m/s 746 mmHg 66%
    06:00 +14°C° 0 mm 2 m/s 746 mmHg 62%
    07:00 +16°C° 0 mm 2 m/s 745 mmHg 57%
    08:00 +18°C° 0 mm 2 m/s 745 mmHg 53%
    09:00 +19°C° 0 mm 2 m/s 745 mmHg 47%
    10:00 +20°C° 0 mm 3 m/s 744 mmHg 42%
    11:00 +22°C° 0 mm 3 m/s 744 mmHg 36%
    12:00 +22°C° 0 mm 3 m/s 743 mmHg 35%
    13:00 +22°C° 0 mm 3 m/s 743 mmHg 35%
    14:00 +24°C° 0 mm 3 m/s 743 mmHg 34%
    15:00 +23°C° 0 mm 2 m/s 742 mmHg 38%
    16:00 +21°C° 0 mm 2 m/s 742 mmHg 42%
    17:00 +21°C° 0 mm 1 m/s 742 mmHg 47%
    18:00 +19°C° 0.3 mm 2 m/s 742 mmHg 54%
    19:00 +17°C° 0.3 mm 2 m/s 742 mmHg 62%
    20:00 +16°C° 0.3 mm 3 m/s 742 mmHg 70%
    21:00 +14°C° 0.5 mm 3 m/s 742 mmHg 77%
    22:00 +12°C° 0.5 mm 3 m/s 742 mmHg 85%
    23:00 +11°C° 0.5 mm 3 m/s 742 mmHg 92%

    Poimâine, 28 Aprilie, Duminică

    Timp Temperatura Precipitaţii Vânt Presiune Umiditate
    00:00 +10°C° 0 mm 4 m/s 743 mmHg 91%
    01:00 +8°C° 0 mm 4 m/s 743 mmHg 90%
    02:00 +7°C° 0 mm 4 m/s 744 mmHg 88%
    03:00 +6°C° 0 mm 5 m/s 744 mmHg 85%
    04:00 +5°C° 0 mm 5 m/s 745 mmHg 83%
    05:00 +3°C° 0 mm 5 m/s 746 mmHg 80%
    06:00 +3°C° 0 mm 5 m/s 747 mmHg 73%
    07:00 +3°C° 0 mm 5 m/s 747 mmHg 66%
    08:00 +3°C° 0 mm 5 m/s 748 mmHg 59%
    09:00 +5°C° 0 mm 5 m/s 749 mmHg 52%
    10:00 +6°C° 0 mm 5 m/s 749 mmHg 46%
    11:00 +6°C° 0 mm 5 m/s 749 mmHg 39%
    12:00 +7°C° 0 mm 5 m/s 749 mmHg 37%
    13:00 +7°C° 0 mm 5 m/s 750 mmHg 35%
    14:00 +8°C° 0 mm 5 m/s 750 mmHg 32%
    15:00 +8°C° 0 mm 5 m/s 750 mmHg 34%
    16:00 +7°C° 0 mm 5 m/s 750 mmHg 35%
    17:00 +7°C° 0 mm 4 m/s 750 mmHg 37%
    18:00 +6°C° 0 mm 4 m/s 751 mmHg 42%
    19:00 +4°C° 0 mm 3 m/s 751 mmHg 48%
    20:00 +4°C° 0 mm 2 m/s 752 mmHg 53%
    21:00 +3°C° 0 mm 2 m/s 752 mmHg 56%
    22:00 +2°C° 0 mm 2 m/s 753 mmHg 58%
    23:00 +1°C° 0 mm 2 m/s 753 mmHg 60%

    29 Aprilie, Luni

    Timp Temperatura Precipitaţii Vânt Presiune Umiditate
    00:00 +1°C° 0 mm 2 m/s 753 mmHg 61%
    01:00 -1°C° 0 mm 2 m/s 754 mmHg 63%
    02:00 -1°C° 0 mm 2 m/s 754 mmHg 65%
    03:00 -1°C° 0 mm 2 m/s 754 mmHg 65%
    04:00 -2°C° 0 mm 2 m/s 754 mmHg 65%
    05:00 -2°C° 0 mm 2 m/s 755 mmHg 65%
    06:00 +1°C° 0 mm 2 m/s 755 mmHg 58%
    07:00 +2°C° 0 mm 3 m/s 755 mmHg 50%
    08:00 +4°C° 0 mm 3 m/s 755 mmHg 42%
    09:00 +5°C° 0 mm 3 m/s 755 mmHg 38%
    10:00 +7°C° 0 mm 3 m/s 755 mmHg 34%
    11:00 +8°C° 0 mm 2 m/s 755 mmHg 30%
    12:00 +8°C° 0 mm 2 m/s 754 mmHg 29%
    13:00 +9°C° 0 mm 2 m/s 754 mmHg 28%
    14:00 +10°C° 0 mm 2 m/s 753 mmHg 27%
    15:00 +9°C° 0 mm 2 m/s 753 mmHg 28%
    16:00 +10°C° 0 mm 1 m/s 753 mmHg 29%
    17:00 +10°C° 0 mm 1 m/s 752 mmHg 30%
    18:00 +8°C° 0 mm 1 m/s 752 mmHg 35%
    19:00 +6°C° 0 mm 1 m/s 752 mmHg 40%
    20:00 +5°C° 0 mm 1 m/s 752 mmHg 46%
    21:00 +4°C° 0 mm 1 m/s 752 mmHg 48%
    22:00 +3°C° 0 mm 1 m/s 752 mmHg 51%
    23:00 +3°C° 0 mm 1 m/s 752 mmHg 53%

    30 Aprilie, Marţi

    Timp Temperatura Precipitaţii Vânt Presiune Umiditate
    00:00 +2°C° 0 mm 1 m/s 752 mmHg 54%
    01:00 +2°C° 0 mm 1 m/s 752 mmHg 55%
    02:00 +2°C° 0 mm 1 m/s 752 mmHg 56%
    03:00 +2°C° 0 mm 1 m/s 751 mmHg 56%
    04:00 +2°C° 0 mm 1 m/s 751 mmHg 56%
    05:00 +2°C° 0 mm 1 m/s 751 mmHg 56%
    06:00 +4°C° 0 mm 1 m/s 751 mmHg 50%
    07:00 +7°C° 0 mm 1 m/s 751 mmHg 43%
    08:00 +9°C° 0 mm 1 m/s 751 mmHg 37%
    09:00 +11°C° 0 mm 1 m/s 750 mmHg 34%
    10:00 +12°C° 0 mm 1 m/s 750 mmHg 32%
    11:00 +13°C° 0 mm 1 m/s 750 mmHg 29%
    12:00 +13°C° 0 mm 0 m/s 750 mmHg 29%
    13:00 +13°C° 0 mm 0 m/s 749 mmHg 29%
    14:00 +13°C° 0 mm 0 m/s 749 mmHg 29%
    15:00 +12°C° 0 mm 0 m/s 748 mmHg 30%
    16:00 +12°C° 0 mm 0 m/s 748 mmHg 31%
    17:00 +11°C° 0 mm 0 m/s 748 mmHg 32%
    18:00 +9°C° 0 mm 0 m/s 748 mmHg 37%
    19:00 +9°C° 0 mm 1 m/s 748 mmHg 42%
    20:00 +7°C° 0 mm 1 m/s 748 mmHg 46%
    21:00 +6°C° 0 mm 1 m/s 748 mmHg 48%
    22:00 +6°C° 0 mm 1 m/s 747 mmHg 50%
    23:00 +5°C° 0 mm 1 m/s 747 mmHg 52%

    1 Mai, Miercuri

    Timp Temperatura Precipitaţii Vânt Presiune Umiditate
    00:00 +5°C° 0 mm 1 m/s 747 mmHg 54%
    01:00 +4°C° 0 mm 1 m/s 747 mmHg 56%
    02:00 +4°C° 0 mm 1 m/s 747 mmHg 57%
    03:00 +4°C° 0 mm 1 m/s 747 mmHg 57%
    04:00 +4°C° 0 mm 1 m/s 746 mmHg 57%
    05:00 +5°C° 0 mm 1 m/s 746 mmHg 56%
    06:00 +7°C° 0 mm 1 m/s 746 mmHg 51%
    07:00 +8°C° 0 mm 2 m/s 746 mmHg 45%
    08:00 +10°C° 0 mm 2 m/s 746 mmHg 40%
    09:00 +12°C° 0 mm 2 m/s 745 mmHg 36%
    10:00 +13°C° 0 mm 2 m/s 745 mmHg 33%
    11:00 +14°C° 0 mm 2 m/s 744 mmHg 30%
    12:00 +14°C° 0 mm 2 m/s 744 mmHg 31%
    13:00 +14°C° 0 mm 2 m/s 743 mmHg 31%
    14:00 +14°C° 0 mm 3 m/s 743 mmHg 31%
    15:00 +13°C° 0 mm 3 m/s 742 mmHg 33%
    16:00 +13°C° 0 mm 3 m/s 742 mmHg 35%
    17:00 +13°C° 0 mm 3 m/s 741 mmHg 37%
    18:00 +11°C° 0 mm 3 m/s 741 mmHg 44%
    19:00 +9°C° 0 mm 3 m/s 741 mmHg 51%
    20:00 +7°C° 0 mm 3 m/s 740 mmHg 58%
    21:00 +7°C° 0 mm 3 m/s 740 mmHg 58%
    22:00 +7°C° 0 mm 3 m/s 740 mmHg 57%
    23:00 +7°C° 0 mm 3 m/s 739 mmHg 57%
    Arată mai mult